User: anonymous   Login
Location: Unspecified
(0.0000°N, 0.0000°E)
Time: 05:05:11
(UTC+02:00)
Language:

ARIANE 5 R/B - Orbit

View from above orbital plane
View from above orbital plane
View from above satellite
View from above satellite

Ground track
Ground track

The orbit data is extracted from the following two-line orbital elements,

1 28787U 05028B   15108.59395071 -.00000033  00000-0  43166-3 0  9991
2 28787 007.3756 342.8779 7159084 321.6898 006.6091 02.26557645 80184
Epoch (UTC): 18 April 2015 14:15:17
Eccentricity: 0.7159084
inclination: 7.3756°
perigee height: 578 km
apogee height: 35640 km
right ascension of ascending node: 342.8779°
argument of perigee: 321.6898°
revolutions per day: 2.26557645
mean anomaly at epoch: 6.6091°
orbit number at epoch: 8018

The dashed part of the orbit path shows where the satellite is in the earth's shadow,  

DLR